Погода в Амге

Погода в Амге : погода сейчас, прогноз погоды и архив. Всё, что Вы хотите узнать о погоде в Амге!

Хотите узнать прогноз погоды в Амге? Тогда Вам сюда: Погода в Амге

Поиск расширенной информации на нашем сайте:

Другие новости

Новости СМИ2

Главная страница сайта

Новости сайта

03.07.2017

Напоминаем, что на нашем специализированном сайте Метеоцентр.Азия вы можете получить высокодетализированные автоматические прогнозы погоды по пунктам России, СНГ и мира в авиационном формате (включающие направление и скорость ветра, видимость, явления погоды, количество и форму облачности, нижнюю и верхнюю границу облачности).


Погода в Амге - сегодня

Время (UTC), дата Ветер
(°,м/с) 
Видим.   Явления Облачность Т
(°С)
Тd
(°С)
f(%) Тe
(°С)
Pmin
(гПа)
dP
(гПа)
Po
(мм)
O2
(г/м3)
Тmin Tmax R s Состояние
почвы
15 17.11.18 250 (З) 20000 м  слаб. снег  10/10 600 м 
[Ac As]
-17.4 -18.6 90 -20  1020.5  -0.3  751  325           
18 17.11.18 230 (ЮЗ) 20000 м  слаб. снег  10/10 600 м 
[Ac As]
-19.3 -20.5 90 -24  1020.8  0.2  751  327           
21 17.11.18 240 (ЮЗ) 20000 м  слаб. снег  10/10 600 м 
[Ac As]
-19.6 -20.8 90 -24  1020.9  751  327           
03 18.11.18 220 (ЮЗ) 4000 м  слаб. снег  10/0 средняя 
[As op]
-18 -19.9 85 -21  1019.7  -0.9  750  325           
06 18.11.18 280 (З) 4000 м  слаб. снег  10/0 средняя 
[As op]
-17.3 -19.9 80 -20  1018.9  -0.8  749  324           
09 18.11.18 320 (СЗ) 4000 м  слаб. снег  10/0 средняя 
[As op]
-17.7 -21.1 75 -22  1019.2  0.3  750  325           
15 18.11.18 310 (СЗ) 4000 м  слаб. снег  10/0 средняя 
[As op]
-19.8 -22.4 80 -20  1019.6  -0.2  750  327           
18 18.11.18 тихо ()   4000 м  слаб. снег  10/0 средняя 
[As op]
-21.6 -23.4 85 -22  1019.5  -0.3  750  330           
21 18.11.18 тихо ()   10 км  слаб. снег  10/0 средняя, верхняя 
[Ac As|Cs]
-25.6 -27.5 84 -26  1019.9  0.1  750  335           
03 19.11.18 тихо ()   20000 м    10/8 600 м средняя, верхняя 
[Ac trans|Ci fib]
-28.6 -30.4 84 -29  1020.3  -0.4  750  339           
06 19.11.18 тихо ()   20000 м    10/5 600 м средняя, верхняя 
[Ac As|Ci fib]
-26.6 -29 80 -27  1020.5  0.4  750  337           
09 19.11.18 тихо ()   20000 м    10/0 средняя, верхняя 
[Ac As|Ci fib]
-29.7 -31.5 84 -30  1021.1  0.4  750  341           
15 19.11.18 тихо ()   20000 м  слаб. снег  10/0 средняя, верхняя 
[Ac trans|Cs]
-29.3 -31.8 79 -29  1020.9  -0.2  750  341           
18 19.11.18 220 (ЮЗ) 20000 м  слаб. снег  10/0 средняя, верхняя 
[Ac trans|Cs]
-27.6 -29.3 85 -31  1020.1  -0.7  750  338           
21 19.11.18 230 (ЮЗ) 20000 м  слаб. снег  10/0 средняя, верхняя 
[Ac trans|Cs]
-27.2 -29 85 -28  1019.6  -0.4  749  337           
03 20.11.18 210 (ЮЗ) 10 км  слаб. снег  10/0 средняя 
[Ac As]
-25.5 -28 80 -26  1018.1  -0.9  748  334           
06 20.11.18 210 (ЮЗ) 20000 м  слаб. снег  10/0 средняя, верхняя 
[Ac As|Ci fib]
-25.7 -27.5 85 -26  1018.1  -0.1  748  335           
09 20.11.18 230 (ЮЗ) 4000 м  слаб. снег  10/0 средняя 
[Ac As]
-25.8 -27.6 85 -26  1018.3  0.2  748  335           
15 20.11.18 тихо ()   20000 м  слаб. снег  10/0 верхняя 
[Cs]
-28.7 -30.6 84 -29  1017.5  -0.8  748  339           
18 20.11.18 220 (ЮЗ) 20000 м  слаб. снег  10/0 средняя, верхняя 
[Ac As|Cs]
-28.5 -30.4 84 -29  1017.4  -0.1  748  338           
21 20.11.18 220 (ЮЗ) 20000 м  слаб. снег  10/0 средняя 
[Ac As]
-27.2 -29 85 -28  1016.9  -0.4  747  336           
03 21.11.18 230 (ЮЗ) 20000 м  слаб. снег  10/0 средняя 
[Ac As]
-25.9 -28.4 79 -26  1017.1  748  335           
06 21.11.18 190 (Ю) 10 км  слаб. снег  10/0 средняя 
[Ac As]
-24.2 -26.7 80 -25  1018.1  748  333           
09 21.11.18 290 (З) 20000 м  слаб. снег  10/0 средняя 
[Ac As]
-25.3 -27.8 80 -26  1018.9  0.8  749  334           
15 21.11.18 210 (ЮЗ) 20000 м  слаб. снег  10/0 средняя 
[Ac As]
-28.9 -31.4 79 -33  1019.9  0.1  749  340           
Время (UTC), дата Ветер
(°,м/с) 
Видим.   Явления Облачность Т
(°С)
Тd
(°С)
f(%) Тe
(°С)
Pmin
(гПа)
dP
(гПа)
Po
(мм)
O2
(г/м3)
Тmin Tmax R s Состояние
почвы

Для получения пояснительной информации подведите курсор к названию столбца.

ПОГОДА в Амге - архив

Всё, что Вы хотите узнать о погоде в Амге - удобно и подробно!

Выберите нужную дату (начиная с 1 января 2015* года) и нажмите кнопку "Найти".
Будут отображены архивные сводки погоды по пункту Амга, начиная с указанной даты.


Отображать данные в формате CSV (для использования в таблицах Excel)


Внимание! Наш архив погоды предназначен исключительно для личного некоммерческого использования в познавательных целях. Если Вам необходимы официальные справки о состоянии погоды (для производственных, юридических, коммерческих и т.п. целей), обращайтесь в органы Росгидромета.

*Примечание: данная дата относится к архиву по метеостанциям СССР (Россия, СНГ, Балтия).
Архив по метеостанциям Зарубежной Европы и Азии (кроме Китая) хранится 10 дней, по другим регионам земного шара (Китай, Африка, Америка, Австралия, Океания) - 1 день.

Амга - район местоположения метеостанции


Название, широта, долгота, высота метеостанции:
Амга 60.9°ш. 132°д. 146 м над ур. моря [Российская Федерация]

Дополнительная информация

В oтличие oт бoльшинства пoгoдных сайтoв мы публикуем пoдрoбную метеoинфoрмацию в детальнoм прoфессиoнальнoм фoрмате.

Характеристики температуры и влажнoсти вoздуха измеряются на высoте 2 м в тени вдали oт зданий и деревьев.
Скoрoсть ветра измеряется на высoте 10 м (на урoвне рoста челoвека скoрoсть ветра ниже в 1.5-2 раза). Если метеoстанция нахoдится в гoрoде или в лесу, тo скoрoсть ветра занижена на 2-4 м/с пo сравнению с oткрытым местoм. Скoрoсть ветра над акватoриями крупных рек и oзёр, а также на вершинах хoлмoв на 2-5 м/с выше, чем в oбычных услoвиях.
Атмoсфернoе давление в разных тoчках местнoсти мoжет значительнo oтличаться oт давления на метеoстанции, в зависимoсти oт услoвий рельефа (при пoдъёме на 10 м давление пoнижается примернo на 1 мм рт.ст.).